Time,TemperatureF,DewpointF,PressureIn,WindDirection,WindDirectionDegrees,WindSpeedMPH,WindSpeedGustMPH,Humidity,HourlyPrecipIn,Conditions,Clouds,dailyrainin,SoftwareType,DateUTC
2013-04-27 00:01:00,62.8,54.0,30.10,SSW,212,0.0,0.0,73,0.00,CLR,,0.00,WeatherDisplay:10.37,2013-04-27 07:01:00,
2013-04-27 00:06:00,62.7,54.3,30.10,SSW,212,0.0,0.0,74,0.00,CLR,,0.00,WeatherDisplay:10.37,2013-04-27 07:06:00,
2013-04-27 00:11:00,62.4,53.6,30.10,SSW,212,0.0,0.0,73,0.00,CLR,,0.00,WeatherDisplay:10.37,2013-04-27 07:11:00,
2013-04-27 00:16:00,62.2,53.8,30.10,SSW,212,0.0,0.0,74,0.00,CLR,,0.00,WeatherDisplay:10.37,2013-04-27 07:16:00,
2013-04-27 00:21:00,61.9,52.8,30.10,SSW,213,0.0,0.0,72,0.00,CLR,,0.00,WeatherDisplay:10.37,2013-04-27 07:21:00,
2013-04-27 00:26:00,61.7,53.3,30.10,SSW,212,0.0,0.0,74,0.00,CLR,,0.00,WeatherDisplay:10.37,2013-04-27 07:26:00,
2013-04-27 00:31:00,62.0,53.2,30.10,SSW,212,0.0,0.0,73,0.00,CLR,,0.00,WeatherDisplay:10.37,2013-04-27 07:31:00,
2013-04-27 00:36:00,62.1,53.0,30.10,SSW,212,0.0,0.0,72,0.00,CLR,,0.00,WeatherDisplay:10.37,2013-04-27 07:36:00,
2013-04-27 00:41:00,62.1,53.0,30.10,SSW,212,0.0,0.0,72,0.00,CLR,,0.00,WeatherDisplay:10.37,2013-04-27 07:41:00,
2013-04-27 00:46:00,61.8,53.1,30.10,SSW,213,0.0,0.0,73,0.00,CLR,,0.00,WeatherDisplay:10.37,2013-04-27 07:46:00,
2013-04-27 00:51:00,61.6,52.9,30.10,SSW,212,0.0,0.0,73,0.00,CLR,,0.00,WeatherDisplay:10.37,2013-04-27 07:51:00,
2013-04-27 00:56:00,61.4,52.3,30.10,SSW,212,0.0,0.0,72,0.00,CLR,,0.00,WeatherDisplay:10.37,2013-04-27 07:56:00,
2013-04-27 01:01:00,61.3,52.9,30.10,SSW,212,0.0,0.0,74,0.00,CLR,,0.00,WeatherDisplay:10.37,2013-04-27 08:01:00,
2013-04-27 01:06:00,61.1,52.7,30.10,SSW,212,0.0,0.0,74,0.00,CLR,,0.00,WeatherDisplay:10.37,2013-04-27 08:06:00,
2013-04-27 01:11:00,60.9,52.6,30.10,SSW,212,0.0,0.0,74,0.00,CLR,,0.00,WeatherDisplay:10.37,2013-04-27 08:11:00,
2013-04-27 01:16:00,60.7,52.4,30.10,SSW,212,0.0,0.0,74,0.00,CLR,,0.00,WeatherDisplay:10.37,2013-04-27 08:16:00,
2013-04-27 01:21:00,60.5,52.2,30.10,SSW,212,0.0,0.0,74,0.00,CLR,,0.00,WeatherDisplay:10.37,2013-04-27 08:21:00,
2013-04-27 01:26:00,60.4,52.1,30.10,SSW,212,0.0,0.0,74,0.00,CLR,,0.00,WeatherDisplay:10.37,2013-04-27 08:26:00,
2013-04-27 01:31:00,60.3,52.0,30.10,SSW,212,0.0,0.0,74,0.00,CLR,,0.00,WeatherDisplay:10.37,2013-04-27 08:31:00,
2013-04-27 01:36:00,60.3,52.3,30.10,SSW,212,0.0,0.0,75,0.00,CLR,,0.00,WeatherDisplay:10.37,2013-04-27 08:36:00,
2013-04-27 01:41:00,60.1,52.1,30.10,SSW,212,0.0,0.0,75,0.00,CLR,,0.00,WeatherDisplay:10.37,2013-04-27 08:41:00,
2013-04-27 01:46:00,60.0,52.1,30.10,SSW,212,0.0,0.0,75,0.00,CLR,,0.00,WeatherDisplay:10.37,2013-04-27 08:46:00,
2013-04-27 01:51:00,60.0,52.1,30.10,SSW,212,0.0,0.0,75,0.00,CLR,,0.00,WeatherDisplay:10.37,2013-04-27 08:51:00,
2013-04-27 01:56:00,59.9,52.3,30.10,SSW,212,0.0,0.0,76,0.00,CLR,,0.00,WeatherDisplay:10.37,2013-04-27 08:56:00,
2013-04-27 02:01:00,59.9,52.3,30.10,SSW,212,0.0,0.0,76,0.00,CLR,,0.00,WeatherDisplay:10.37,2013-04-27 09:01:00,
2013-04-27 02:06:00,59.7,52.1,30.10,SSW,213,0.0,0.0,76,0.00,CLR,,0.00,WeatherDisplay:10.37,2013-04-27 09:06:00,
2013-04-27 02:11:00,59.7,51.8,30.10,SSW,212,0.0,0.0,75,0.00,CLR,,0.00,WeatherDisplay:10.37,2013-04-27 09:11:00,
2013-04-27 02:16:00,59.6,52.0,30.10,SSW,212,0.0,0.0,76,0.00,CLR,,0.00,WeatherDisplay:10.37,2013-04-27 09:16:00,
2013-04-27 02:21:00,59.5,51.9,30.10,SSW,212,0.0,0.0,76,0.00,CLR,,0.00,WeatherDisplay:10.37,2013-04-27 09:21:00,
2013-04-27 02:26:00,59.3,52.1,30.10,SSW,212,0.0,0.0,77,0.00,CLR,,0.00,WeatherDisplay:10.37,2013-04-27 09:26:00,
2013-04-27 02:31:00,59.1,51.9,30.10,SSW,212,0.0,0.0,77,0.00,CLR,,0.00,WeatherDisplay:10.37,2013-04-27 09:31:00,
2013-04-27 02:36:00,58.9,52.1,30.09,SSW,212,0.0,0.0,78,0.00,CLR,,0.00,WeatherDisplay:10.37,2013-04-27 09:36:00,
2013-04-27 02:41:00,58.8,51.6,30.09,SSW,212,0.0,0.0,77,0.00,CLR,,0.00,WeatherDisplay:10.37,2013-04-27 09:41:00,
2013-04-27 02:46:00,59.0,52.1,30.10,SSW,212,0.0,0.0,78,0.00,CLR,,0.00,WeatherDisplay:10.37,2013-04-27 09:46:00,
2013-04-27 02:51:00,58.9,51.7,30.10,SSW,212,0.0,0.0,77,0.00,CLR,,0.00,WeatherDisplay:10.37,2013-04-27 09:51:00,
2013-04-27 02:56:00,58.6,51.8,30.10,SSW,212,0.0,0.0,78,0.00,CLR,,0.00,WeatherDisplay:10.37,2013-04-27 09:56:00,
2013-04-27 03:01:00,58.5,51.7,30.10,SSW,212,0.0,0.0,78,0.00,CLR,,0.00,WeatherDisplay:10.37,2013-04-27 10:01:00,
2013-04-27 03:06:00,58.4,51.6,30.10,SSW,212,0.0,0.0,78,0.00,CLR,,0.00,WeatherDisplay:10.37,2013-04-27 10:06:00,
2013-04-27 03:11:00,58.3,51.5,30.10,SSW,212,0.0,0.0,78,0.00,CLR,,0.00,WeatherDisplay:10.37,2013-04-27 10:11:00,
2013-04-27 03:16:00,58.3,51.5,30.10,SSW,212,0.0,0.0,78,0.00,CLR,,0.00,WeatherDisplay:10.37,2013-04-27 10:16:00,
2013-04-27 03:21:00,58.3,51.5,30.10,SSW,212,0.0,0.0,78,0.00,CLR,,0.00,WeatherDisplay:10.37,2013-04-27 10:21:00,
2013-04-27 03:26:00,58.4,51.2,30.10,SSW,212,0.0,0.0,77,0.00,CLR,,0.00,WeatherDisplay:10.37,2013-04-27 10:26:00,
2013-04-27 03:31:00,58.3,51.5,30.10,SSW,212,0.0,0.0,78,0.00,CLR,,0.00,WeatherDisplay:10.37,2013-04-27 10:31:00,
2013-04-27 03:36:00,58.1,51.3,30.11,SSW,212,0.0,0.0,78,0.00,CLR,,0.00,WeatherDisplay:10.37,2013-04-27 10:36:00,
2013-04-27 03:41:00,58.0,51.2,30.11,SSW,212,0.0,0.0,78,0.00,CLR,,0.00,WeatherDisplay:10.37,2013-04-27 10:41:00,
2013-04-27 03:46:00,57.9,51.4,30.10,SSW,212,0.0,0.0,79,0.00,CLR,,0.00,WeatherDisplay:10.37,2013-04-27 10:46:00,
2013-04-27 03:51:00,57.7,51.6,30.10,SSW,212,0.0,0.0,80,0.00,CLR,,0.00,WeatherDisplay:10.37,2013-04-27 10:51:00,
2013-04-27 03:56:00,57.5,51.4,30.10,SSW,212,0.0,0.0,80,0.00,CLR,,0.00,WeatherDisplay:10.37,2013-04-27 10:56:00,
2013-04-27 04:01:00,57.3,51.2,30.10,SSW,212,0.0,0.0,80,0.00,CLR,,0.00,WeatherDisplay:10.37,2013-04-27 11:01:00,
2013-04-27 04:06:00,57.1,51.3,30.10,SSW,212,0.0,0.0,81,0.00,CLR,,0.00,WeatherDisplay:10.37,2013-04-27 11:06:00,
2013-04-27 04:11:00,57.0,51.2,30.10,SSW,212,0.0,0.0,81,0.00,CLR,,0.00,WeatherDisplay:10.37,2013-04-27 11:11:00,
2013-04-27 04:16:00,56.8,51.0,30.10,SSW,212,0.0,0.0,81,0.00,CLR,,0.00,WeatherDisplay:10.37,2013-04-27 11:16:00,
2013-04-27 04:21:00,56.6,50.8,30.10,SSW,212,0.0,0.0,81,0.00,CLR,,0.00,WeatherDisplay:10.37,2013-04-27 11:21:00,
2013-04-27 04:26:00,56.5,51.1,30.10,SSW,213,0.0,0.0,82,0.00,CLR,,0.00,WeatherDisplay:10.37,2013-04-27 11:26:00,
2013-04-27 04:31:00,56.2,50.8,30.10,SSW,212,0.0,0.0,82,0.00,CLR,,0.00,WeatherDisplay:10.37,2013-04-27 11:31:00,
2013-04-27 04:36:00,56.0,50.9,30.11,SSW,213,0.0,0.0,83,0.00,CLR,,0.00,WeatherDisplay:10.37,2013-04-27 11:36:00,
2013-04-27 04:41:00,55.9,50.8,30.11,SSW,212,0.0,0.0,83,0.00,CLR,,0.00,WeatherDisplay:10.37,2013-04-27 11:41:00,
2013-04-27 04:46:00,55.8,51.0,30.10,SSW,212,0.0,0.0,84,0.00,CLR,,0.00,WeatherDisplay:10.37,2013-04-27 11:46:00,
2013-04-27 04:51:00,55.7,50.9,30.11,SSW,212,0.0,0.0,84,0.00,CLR,,0.00,WeatherDisplay:10.37,2013-04-27 11:51:00,
2013-04-27 04:56:00,55.5,50.7,30.11,SSW,212,0.0,0.0,84,0.00,CLR,,0.00,WeatherDisplay:10.37,2013-04-27 11:56:00,
2013-04-27 05:01:00,55.5,50.7,30.11,SSW,212,0.0,0.0,84,0.00,CLR,,0.00,WeatherDisplay:10.37,2013-04-27 12:01:00,
2013-04-27 05:06:00,55.4,50.6,30.11,SSW,212,0.0,0.0,84,0.00,CLR,,0.00,WeatherDisplay:10.37,2013-04-27 12:06:00,
2013-04-27 05:11:00,55.3,50.5,30.11,SSW,212,0.0,0.0,84,0.00,CLR,,0.00,WeatherDisplay:10.37,2013-04-27 12:11:00,
2013-04-27 05:16:00,55.4,50.3,30.11,SSW,212,0.0,0.0,83,0.00,CLR,,0.00,WeatherDisplay:10.37,2013-04-27 12:16:00,
2013-04-27 05:21:00,55.6,50.2,30.11,SSW,212,0.0,0.0,82,0.00,CLR,,0.00,WeatherDisplay:10.37,2013-04-27 12:21:00,
2013-04-27 05:26:00,55.5,49.8,30.11,SSW,212,0.0,0.0,81,0.00,CLR,,0.00,WeatherDisplay:10.37,2013-04-27 12:26:00,
2013-04-27 05:31:00,55.5,49.8,30.11,SSW,212,0.0,0.0,81,0.00,CLR,,0.00,WeatherDisplay:10.37,2013-04-27 12:31:00,
2013-04-27 05:36:00,55.7,50.0,30.11,SSW,212,0.0,0.0,81,0.00,CLR,,0.00,WeatherDisplay:10.37,2013-04-27 12:36:00,
2013-04-27 05:41:00,55.8,50.1,30.11,SSW,213,0.0,0.0,81,0.00,CLR,,0.00,WeatherDisplay:10.37,2013-04-27 12:41:00,
2013-04-27 05:46:00,55.7,50.0,30.11,SSW,212,0.0,0.0,81,0.00,CLR,,0.00,WeatherDisplay:10.37,2013-04-27 12:46:00,
2013-04-27 05:51:00,55.5,50.1,30.11,SSW,213,0.0,0.0,82,0.00,CLR,,0.00,WeatherDisplay:10.37,2013-04-27 12:51:00,
2013-04-27 05:56:00,55.4,50.3,30.11,SSW,212,0.0,0.0,83,0.00,CLR,,0.00,WeatherDisplay:10.37,2013-04-27 12:56:00,
2013-04-27 06:01:00,55.3,50.2,30.11,SSW,212,0.0,0.0,83,0.00,CLR,,0.00,WeatherDisplay:10.37,2013-04-27 13:01:00,
2013-04-27 06:06:00,55.1,50.0,30.11,SSW,212,0.0,0.0,83,0.00,CLR,,0.00,WeatherDisplay:10.37,2013-04-27 13:06:00,
2013-04-27 06:11:00,55.0,49.9,30.11,SSW,212,0.0,0.0,83,0.00,CLR,,0.00,WeatherDisplay:10.37,2013-04-27 13:11:00,
2013-04-27 06:16:00,54.9,50.2,30.11,SSW,212,0.0,0.0,84,0.00,CLR,,0.00,WeatherDisplay:10.37,2013-04-27 13:16:00,
2013-04-27 06:21:00,54.9,50.2,30.12,SSW,212,0.0,0.0,84,0.00,CLR,,0.00,WeatherDisplay:10.37,2013-04-27 13:21:00,
2013-04-27 06:26:00,54.9,49.8,30.12,SSW,213,0.0,0.0,83,0.00,CLR,,0.00,WeatherDisplay:10.37,2013-04-27 13:26:00,
2013-04-27 06:31:00,55.2,50.1,30.12,SSW,212,0.0,0.0,83,0.00,CLR,,0.00,WeatherDisplay:10.37,2013-04-27 13:31:00,
2013-04-27 06:36:00,55.3,49.9,30.12,SSW,212,0.0,0.0,82,0.00,CLR,,0.00,WeatherDisplay:10.37,2013-04-27 13:36:00,
2013-04-27 06:41:00,55.6,50.2,30.13,SSW,212,0.0,0.0,82,0.00,CLR,,0.00,WeatherDisplay:10.37,2013-04-27 13:41:00,
2013-04-27 06:48:00,56.1,50.0,30.13,SSW,212,0.0,0.0,80,0.00,CLR,,0.00,WeatherDisplay:10.37,2013-04-27 13:48:00,
2013-04-27 06:53:00,56.2,50.4,30.13,SSW,212,0.0,0.0,81,0.00,CLR,,0.00,WeatherDisplay:10.37,2013-04-27 13:53:00,
2013-04-27 06:58:00,56.2,50.4,30.14,SSW,213,0.0,0.0,81,0.00,CLR,,0.00,WeatherDisplay:10.37,2013-04-27 13:58:00,
2013-04-27 07:03:00,56.3,50.5,30.14,SSW,213,0.0,0.0,81,0.00,CLR,,0.00,WeatherDisplay:10.37,2013-04-27 14:03:00,
2013-04-27 07:08:00,56.4,50.6,30.14,SSW,212,0.0,0.0,81,0.00,CLR,,0.00,WeatherDisplay:10.37,2013-04-27 14:08:00,
2013-04-27 07:13:00,56.6,50.8,30.14,SSW,212,0.0,0.0,81,0.00,CLR,,0.00,WeatherDisplay:10.37,2013-04-27 14:13:00,
2013-04-27 07:18:00,56.9,50.8,30.14,SSW,212,0.0,0.0,80,0.00,CLR,,0.00,WeatherDisplay:10.37,2013-04-27 14:18:00,
2013-04-27 07:23:00,57.6,50.4,30.14,SSW,212,0.0,0.0,77,0.00,CLR,,0.00,WeatherDisplay:10.37,2013-04-27 14:23:00,
2013-04-27 07:28:00,58.7,50.8,30.14,SSW,213,0.0,0.0,75,0.00,CLR,,0.00,WeatherDisplay:10.37,2013-04-27 14:28:00,
2013-04-27 07:33:00,59.6,50.6,30.14,SSW,210,0.0,0.0,72,0.00,CLR,,0.00,WeatherDisplay:10.37,2013-04-27 14:33:00,
2013-04-27 07:38:00,60.3,50.1,30.14,WNW,296,0.0,0.0,69,0.00,CLR,,0.00,WeatherDisplay:10.37,2013-04-27 14:38:00,
2013-04-27 07:43:00,61.0,50.4,30.14,SW,231,0.0,0.0,68,0.00,CLR,,0.00,WeatherDisplay:10.37,2013-04-27 14:43:00,
2013-04-27 07:48:00,61.6,50.1,30.14,SW,230,0.0,0.0,66,0.00,CLR,,0.00,WeatherDisplay:10.37,2013-04-27 14:48:00,
2013-04-27 07:53:00,62.0,50.5,30.14,SW,232,0.0,0.0,66,0.00,CLR,,0.00,WeatherDisplay:10.37,2013-04-27 14:53:00,
2013-04-27 07:58:00,62.4,50.5,30.15,West,279,1.2,0.0,65,0.00,CLR,,0.00,WeatherDisplay:10.37,2013-04-27 14:58:00,
2013-04-27 08:03:00,62.9,51.4,30.15,SW,232,0.0,0.0,66,0.00,CLR,,0.00,WeatherDisplay:10.37,2013-04-27 15:03:00,
2013-04-27 08:08:00,63.4,51.0,30.15,SW,219,2.3,2.3,64,0.00,CLR,,0.00,WeatherDisplay:10.37,2013-04-27 15:08:00,
2013-04-27 08:13:00,63.9,51.1,30.15,SW,228,1.2,0.0,63,0.00,CLR,,0.00,WeatherDisplay:10.37,2013-04-27 15:13:00,
2013-04-27 08:18:00,64.3,51.0,30.15,SW,235,1.2,1.2,62,0.00,CLR,,0.00,WeatherDisplay:10.37,2013-04-27 15:18:00,
2013-04-27 08:23:00,64.7,50.5,30.15,SW,217,1.2,0.0,60,0.00,CLR,,0.00,WeatherDisplay:10.37,2013-04-27 15:23:00,
2013-04-27 08:28:00,65.1,51.8,30.15,WSW,256,1.2,0.0,62,0.00,CLR,,0.00,WeatherDisplay:10.37,2013-04-27 15:28:00,
2013-04-27 08:33:00,65.5,50.3,30.15,SW,228,0.0,0.0,58,0.00,CLR,,0.00,WeatherDisplay:10.37,2013-04-27 15:33:00,
2013-04-27 08:38:00,65.9,51.2,30.15,SSW,204,0.0,0.0,59,0.00,CLR,,0.00,WeatherDisplay:10.37,2013-04-27 15:38:00,
2013-04-27 08:43:00,66.2,50.0,30.15,WSW,249,1.2,1.2,56,0.00,CLR,,0.00,WeatherDisplay:10.37,2013-04-27 15:43:00,
2013-04-27 08:48:00,66.5,50.8,30.15,WSW,240,1.0,0.0,57,0.00,CLR,,0.00,WeatherDisplay:10.37,2013-04-27 15:48:00,
2013-04-27 08:53:00,66.8,51.1,30.15,SSW,212,0.0,0.0,57,0.00,CLR,,0.00,WeatherDisplay:10.37,2013-04-27 15:53:00,
2013-04-27 08:58:00,67.3,51.5,30.15,SW,215,1.2,0.0,57,0.00,CLR,,0.00,WeatherDisplay:10.37,2013-04-27 15:58:00,
2013-04-27 09:03:00,67.7,51.9,30.15,South,183,1.2,0.0,57,0.00,CLR,,0.00,WeatherDisplay:10.37,2013-04-27 16:03:00,
2013-04-27 09:08:00,68.0,51.7,30.15,WSW,253,1.2,0.0,56,0.00,CLR,,0.00,WeatherDisplay:10.37,2013-04-27 16:08:00,
2013-04-27 09:13:00,68.4,52.1,30.15,SW,228,0.0,0.0,56,0.00,CLR,,0.00,WeatherDisplay:10.37,2013-04-27 16:13:00,
2013-04-27 09:18:00,68.8,51.5,30.14,SW,232,0.0,0.0,54,0.00,CLR,,0.00,WeatherDisplay:10.37,2013-04-27 16:18:00,
2013-04-27 09:23:00,69.0,51.7,30.14,SW,229,0.0,0.0,54,0.00,CLR,,0.00,WeatherDisplay:10.37,2013-04-27 16:23:00,
2013-04-27 09:28:00,69.4,51.0,30.14,WSW,238,0.0,0.0,52,0.00,CLR,,0.00,WeatherDisplay:10.37,2013-04-27 16:28:00,
2013-04-27 09:33:00,69.8,51.9,30.14,SW,228,0.0,0.0,53,0.00,CLR,,0.00,WeatherDisplay:10.37,2013-04-27 16:33:00,
2013-04-27 09:38:00,70.1,51.7,30.14,SSW,201,1.2,1.2,52,0.00,CLR,,0.00,WeatherDisplay:10.37,2013-04-27 16:38:00,
2013-04-27 09:43:00,70.4,51.9,30.14,SW,235,0.0,0.0,52,0.00,CLR,,0.00,WeatherDisplay:10.37,2013-04-27 16:43:00,
2013-04-27 09:48:00,70.9,51.9,30.14,SSW,212,1.2,0.0,51,0.00,CLR,,0.00,WeatherDisplay:10.37,2013-04-27 16:48:00,
2013-04-27 09:53:00,71.3,51.7,30.14,SSE,167,0.0,0.1,50,0.00,CLR,,0.00,WeatherDisplay:10.37,2013-04-27 16:53:00,
2013-04-27 09:58:00,71.6,52.0,30.14,West,262,1.2,1.2,50,0.00,CLR,,0.00,WeatherDisplay:10.37,2013-04-27 16:58:00,
2013-04-27 10:03:00,71.9,52.2,30.14,SSW,210,1.2,0.0,50,0.00,CLR,,0.00,WeatherDisplay:10.37,2013-04-27 17:03:00,
2013-04-27 10:08:00,72.3,53.2,30.14,SSW,210,1.2,0.0,51,0.00,CLR,,0.00,WeatherDisplay:10.37,2013-04-27 17:08:00,
2013-04-27 10:13:00,72.9,53.2,30.14,SW,214,1.2,1.2,50,0.00,CLR,,0.00,WeatherDisplay:10.37,2013-04-27 17:13:00,
2013-04-27 10:18:00,73.3,53.5,30.14,SW,228,0.0,0.0,50,0.00,CLR,,0.00,WeatherDisplay:10.37,2013-04-27 17:18:00,
2013-04-27 10:23:00,73.7,53.9,30.14,ESE,115,2.3,2.3,50,0.00,CLR,,0.00,WeatherDisplay:10.37,2013-04-27 17:23:00,
2013-04-27 10:28:00,74.0,54.2,30.14,SSE,165,1.2,0.0,50,0.00,CLR,,0.00,WeatherDisplay:10.37,2013-04-27 17:28:00,
2013-04-27 10:33:00,74.4,55.1,30.14,NW,305,1.2,0.0,51,0.00,CLR,,0.00,WeatherDisplay:10.37,2013-04-27 17:33:00,
2013-04-27 10:38:00,74.7,54.8,30.14,SW,218,0.0,0.0,50,0.00,CLR,,0.00,WeatherDisplay:10.37,2013-04-27 17:38:00,
2013-04-27 10:43:00,74.9,53.9,30.14,WSW,252,1.2,1.2,48,0.00,CLR,,0.00,WeatherDisplay:10.37,2013-04-27 17:43:00,
2013-04-27 10:48:00,75.2,54.2,30.14,SSW,193,1.2,0.0,48,0.00,CLR,,0.00,WeatherDisplay:10.37,2013-04-27 17:48:00,
2013-04-27 10:53:00,75.3,54.3,30.14,WSW,244,1.2,1.2,48,0.00,CLR,,0.00,WeatherDisplay:10.37,2013-04-27 17:53:00,
2013-04-27 10:58:00,75.8,55.3,30.14,WSW,242,1.2,1.2,49,0.00,CLR,,0.00,WeatherDisplay:10.37,2013-04-27 17:58:00,
2013-04-27 11:03:00,76.3,55.2,30.14,WSW,238,0.0,0.0,48,0.00,CLR,,0.00,WeatherDisplay:10.37,2013-04-27 18:03:00,
2013-04-27 11:08:00,76.7,56.1,30.13,WSW,252,1.2,1.2,49,0.00,CLR,,0.00,WeatherDisplay:10.37,2013-04-27 18:08:00,
2013-04-27 11:13:00,77.3,56.6,30.13,West,262,0.0,0.0,49,0.00,CLR,,0.00,WeatherDisplay:10.37,2013-04-27 18:13:00,
2013-04-27 11:18:00,77.8,55.4,30.13,NW,322,1.2,1.2,46,0.00,CLR,,0.00,WeatherDisplay:10.37,2013-04-27 18:18:00,
2013-04-27 11:23:00,78.3,55.8,30.13,WSW,240,1.0,1.0,46,0.00,CLR,,0.00,WeatherDisplay:10.37,2013-04-27 18:23:00,
2013-04-27 11:28:00,78.7,55.0,30.13,SW,217,1.2,0.0,44,0.00,CLR,,0.00,WeatherDisplay:10.37,2013-04-27 18:28:00,
2013-04-27 11:33:00,79.4,55.6,30.13,SW,219,1.2,0.0,44,0.00,CLR,,0.00,WeatherDisplay:10.37,2013-04-27 18:33:00,
2013-04-27 11:38:00,80.0,55.5,30.12,WSW,240,0.0,0.0,43,0.00,CLR,,0.00,WeatherDisplay:10.37,2013-04-27 18:38:00,
2013-04-27 11:43:00,80.5,55.3,30.12,SSE,162,1.2,1.2,42,0.00,CLR,,0.00,WeatherDisplay:10.37,2013-04-27 18:43:00,
2013-04-27 11:48:00,80.8,54.9,30.12,North,359,3.5,3.5,41,0.00,CLR,,0.00,WeatherDisplay:10.37,2013-04-27 18:48:00,
2013-04-27 11:53:00,81.2,56.6,30.12,WSW,243,1.2,1.2,43,0.00,CLR,,0.00,WeatherDisplay:10.37,2013-04-27 18:53:00,
2013-04-27 11:58:00,81.6,54.9,30.11,WNW,285,1.2,1.2,40,0.00,CLR,,0.00,WeatherDisplay:10.37,2013-04-27 18:58:00,
2013-04-27 12:03:00,82.4,55.7,30.11,SSW,194,1.2,1.2,40,0.00,CLR,,0.00,WeatherDisplay:10.37,2013-04-27 19:03:00,
2013-04-27 12:08:00,82.7,54.5,30.11,NW,319,2.3,2.3,38,0.00,CLR,,0.00,WeatherDisplay:10.37,2013-04-27 19:08:00,
2013-04-27 12:13:00,82.3,53.4,30.10,NNW,339,3.5,3.5,37,0.00,CLR,,0.00,WeatherDisplay:10.37,2013-04-27 19:13:00,
2013-04-27 12:18:00,82.6,53.7,30.10,NNW,330,3.5,3.5,37,0.00,CLR,,0.00,WeatherDisplay:10.37,2013-04-27 19:18:00,
2013-04-27 12:23:00,83.0,52.5,30.10,NW,311,3.5,3.5,35,0.00,CLR,,0.00,WeatherDisplay:10.37,2013-04-27 19:23:00,
2013-04-27 12:28:00,83.3,53.6,30.10,SW,235,2.3,2.3,36,0.00,CLR,,0.00,WeatherDisplay:10.37,2013-04-27 19:28:00,
2013-04-27 12:33:00,83.8,53.2,30.09,NW,321,3.5,3.5,35,0.00,CLR,,0.00,WeatherDisplay:10.37,2013-04-27 19:33:00,
2013-04-27 12:38:00,84.3,54.4,30.09,North,358,4.0,4.0,36,0.00,CLR,,0.00,WeatherDisplay:10.37,2013-04-27 19:38:00,
2013-04-27 12:43:00,84.8,54.1,30.09,West,269,3.5,3.5,35,0.00,CLR,,0.00,WeatherDisplay:10.37,2013-04-27 19:43:00,
2013-04-27 12:48:00,85.1,52.8,30.09,ESE,103,1.0,1.0,33,0.00,CLR,,0.00,WeatherDisplay:10.37,2013-04-27 19:48:00,
2013-04-27 12:53:00,85.0,52.7,30.08,NNE,32,3.5,3.5,33,0.00,CLR,,0.00,WeatherDisplay:10.37,2013-04-27 19:53:00,
2013-04-27 12:58:00,84.8,53.3,30.08,NW,316,1.2,1.2,34,0.00,CLR,,0.00,WeatherDisplay:10.37,2013-04-27 19:58:00,
2013-04-27 13:03:00,85.1,54.4,30.08,West,264,3.5,3.5,35,0.00,CLR,,0.00,WeatherDisplay:10.37,2013-04-27 20:03:00,
2013-04-27 13:08:00,85.8,53.4,30.08,SE,135,0.0,0.0,33,0.00,CLR,,0.00,WeatherDisplay:10.37,2013-04-27 20:08:00,
2013-04-27 13:13:00,86.3,54.6,30.08,West,266,2.3,2.3,34,0.00,CLR,,0.00,WeatherDisplay:10.37,2013-04-27 20:13:00,
2013-04-27 13:18:00,86.1,52.8,30.07,NNW,341,3.5,3.5,32,0.00,CLR,,0.00,WeatherDisplay:10.37,2013-04-27 20:18:00,
2013-04-27 13:23:00,85.9,53.5,30.07,North,352,4.0,4.0,33,0.00,CLR,,0.00,WeatherDisplay:10.37,2013-04-27 20:23:00,
2013-04-27 13:28:00,86.1,53.6,30.07,WNW,285,3.5,3.5,33,0.00,CLR,,0.00,WeatherDisplay:10.37,2013-04-27 20:28:00,
2013-04-27 13:33:00,86.8,53.4,30.07,North,356,3.5,3.5,32,0.00,CLR,,0.00,WeatherDisplay:10.37,2013-04-27 20:33:00,
2013-04-27 13:38:00,86.8,53.4,30.07,WNW,300,3.5,3.5,32,0.00,CLR,,0.00,WeatherDisplay:10.37,2013-04-27 20:38:00,
2013-04-27 13:43:00,86.9,53.5,30.06,North,353,2.0,2.0,32,0.00,CLR,,0.00,WeatherDisplay:10.37,2013-04-27 20:43:00,
2013-04-27 13:48:00,86.8,52.5,30.06,SSE,153,1.0,1.0,31,0.00,CLR,,0.00,WeatherDisplay:10.37,2013-04-27 20:48:00,
2013-04-27 13:53:00,87.2,52.0,30.06,NE,39,3.5,3.5,30,0.00,CLR,,0.00,WeatherDisplay:10.37,2013-04-27 20:53:00,
2013-04-27 13:58:00,87.0,52.7,30.06,SE,131,1.2,1.2,31,0.00,CLR,,0.00,WeatherDisplay:10.37,2013-04-27 20:58:00,
2013-04-27 14:03:00,87.3,52.1,30.06,NW,307,2.3,2.3,30,0.00,CLR,,0.00,WeatherDisplay:10.37,2013-04-27 21:03:00,
2013-04-27 14:08:00,87.3,52.1,30.06,South,169,1.2,0.0,30,0.00,CLR,,0.00,WeatherDisplay:10.37,2013-04-27 21:08:00,
2013-04-27 14:13:00,87.9,52.6,30.05,West,267,3.5,3.5,30,0.00,CLR,,0.00,WeatherDisplay:10.37,2013-04-27 21:13:00,
2013-04-27 14:18:00,88.3,52.0,30.05,NW,322,2.3,2.3,29,0.00,CLR,,0.00,WeatherDisplay:10.37,2013-04-27 21:18:00,
2013-04-27 14:23:00,88.8,54.3,30.04,NNW,336,3.5,3.5,31,0.00,CLR,,0.00,WeatherDisplay:10.37,2013-04-27 21:23:00,
2013-04-27 14:28:00,88.7,51.4,30.04,West,267,3.5,3.5,28,0.00,CLR,,0.00,WeatherDisplay:10.37,2013-04-27 21:28:00,
2013-04-27 14:33:00,88.6,54.1,30.04,North,350,2.3,2.3,31,0.00,CLR,,0.00,WeatherDisplay:10.37,2013-04-27 21:33:00,
2013-04-27 14:38:00,88.8,53.4,30.03,ESE,117,1.2,1.2,30,0.00,CLR,,0.00,WeatherDisplay:10.37,2013-04-27 21:38:00,
2013-04-27 14:43:00,89.1,53.6,30.03,SW,228,2.3,2.3,30,0.00,CLR,,0.00,WeatherDisplay:10.37,2013-04-27 21:43:00,
2013-04-27 14:48:00,89.3,53.8,30.03,SSW,204,3.5,3.5,30,0.00,CLR,,0.00,WeatherDisplay:10.37,2013-04-27 21:48:00,
2013-04-27 14:53:00,89.3,52.9,30.03,ENE,64,3.5,3.5,29,0.00,CLR,,0.00,WeatherDisplay:10.37,2013-04-27 21:53:00,
2013-04-27 14:58:00,89.6,54.1,30.03,WNW,285,3.5,3.5,30,0.00,CLR,,0.00,WeatherDisplay:10.37,2013-04-27 21:58:00,
2013-04-27 15:03:00,89.1,51.7,30.02,NNW,330,1.2,1.2,28,0.00,CLR,,0.00,WeatherDisplay:10.37,2013-04-27 22:03:00,
2013-04-27 15:08:00,89.2,51.8,30.02,WSW,249,3.5,3.5,28,0.00,CLR,,0.00,WeatherDisplay:10.37,2013-04-27 22:08:00,
2013-04-27 15:13:00,89.6,52.2,30.02,SW,226,2.0,2.0,28,0.00,CLR,,0.00,WeatherDisplay:10.37,2013-04-27 22:13:00,
2013-04-27 15:18:00,89.2,54.6,30.01,WSW,248,1.2,0.0,31,0.00,CLR,,0.00,WeatherDisplay:10.37,2013-04-27 22:18:00,
2013-04-27 15:23:00,89.3,53.8,30.01,WSW,243,3.5,3.5,30,0.00,CLR,,0.00,WeatherDisplay:10.37,2013-04-27 22:23:00,
2013-04-27 15:28:00,89.5,53.0,30.01,WNW,293,3.5,3.5,29,0.00,CLR,,0.00,WeatherDisplay:10.37,2013-04-27 22:28:00,
2013-04-27 15:33:00,89.9,53.4,30.00,SE,145,1.2,1.2,29,0.00,CLR,,0.00,WeatherDisplay:10.37,2013-04-27 22:33:00,
2013-04-27 15:38:00,90.4,53.8,30.00,ESE,105,2.3,2.3,29,0.00,CLR,,0.00,WeatherDisplay:10.37,2013-04-27 22:38:00,
2013-04-27 15:43:00,90.7,54.1,30.00,WNW,285,2.3,2.3,29,0.00,CLR,,0.00,WeatherDisplay:10.37,2013-04-27 22:43:00,
2013-04-27 15:48:00,90.6,54.9,30.00,NNW,345,1.2,1.2,30,0.00,CLR,,0.00,WeatherDisplay:10.37,2013-04-27 22:48:00,
2013-04-27 15:53:00,90.2,54.6,30.00,NW,309,3.5,3.5,30,0.00,CLR,,0.00,WeatherDisplay:10.37,2013-04-27 22:53:00,
2013-04-27 15:58:00,90.2,54.6,30.00,South,173,4.0,4.0,30,0.00,CLR,,0.00,WeatherDisplay:10.37,2013-04-27 22:58:00,
2013-04-27 16:03:00,90.6,55.8,30.00,NE,46,1.2,1.2,31,0.00,CLR,,0.00,WeatherDisplay:10.37,2013-04-27 23:03:00,
2013-04-27 16:08:00,90.8,53.2,29.99,West,278,4.6,4.6,28,0.00,CLR,,0.00,WeatherDisplay:10.37,2013-04-27 23:08:00,
2013-04-27 16:13:00,90.6,54.0,29.99,WNW,301,3.5,3.5,29,0.00,CLR,,0.00,WeatherDisplay:10.37,2013-04-27 23:13:00,
2013-04-27 16:18:00,90.9,54.2,29.99,SSW,195,1.2,1.2,29,0.00,CLR,,0.00,WeatherDisplay:10.37,2013-04-27 23:18:00,
2013-04-27 16:23:00,91.0,54.3,29.99,NNW,330,3.5,3.5,29,0.00,CLR,,0.00,WeatherDisplay:10.37,2013-04-27 23:23:00,
2013-04-27 16:28:00,91.2,54.5,29.99,SW,235,2.3,2.3,29,0.00,CLR,,0.00,WeatherDisplay:10.37,2013-04-27 23:28:00,
2013-04-27 16:33:00,91.6,53.9,29.98,WSW,240,1.2,1.2,28,0.00,CLR,,0.00,WeatherDisplay:10.37,2013-04-27 23:33:00,
2013-04-27 16:38:00,91.5,53.8,29.98,NNW,345,2.3,2.3,28,0.00,CLR,,0.00,WeatherDisplay:10.37,2013-04-27 23:38:00,
2013-04-27 16:43:00,91.3,53.6,29.98,West,280,3.5,3.5,28,0.00,CLR,,0.00,WeatherDisplay:10.37,2013-04-27 23:43:00,
2013-04-27 16:48:00,90.8,54.2,29.98,West,273,2.3,2.3,29,0.00,CLR,,0.00,WeatherDisplay:10.37,2013-04-27 23:48:00,
2013-04-27 16:53:00,90.7,54.1,29.98,SW,221,2.3,2.3,29,0.00,CLR,,0.00,WeatherDisplay:10.37,2013-04-27 23:53:00,
2013-04-27 16:58:00,91.1,54.4,29.98,WSW,257,1.2,1.2,29,0.00,CLR,,0.00,WeatherDisplay:10.37,2013-04-27 23:58:00,
2013-04-27 17:03:00,91.3,53.6,29.98,NW,308,0.0,0.0,28,0.00,CLR,,0.00,WeatherDisplay:10.37,2013-04-28 00:03:00,
2013-04-27 17:08:00,91.3,53.6,29.98,NW,305,3.5,3.5,28,0.00,CLR,,0.00,WeatherDisplay:10.37,2013-04-28 00:08:00,
2013-04-27 17:13:00,90.8,54.2,29.97,WNW,284,2.0,2.0,29,0.00,CLR,,0.00,WeatherDisplay:10.37,2013-04-28 00:13:00,
2013-04-27 17:18:00,90.6,53.0,29.97,SW,236,1.2,1.2,28,0.00,CLR,,0.00,WeatherDisplay:10.37,2013-04-28 00:18:00,
2013-04-27 17:23:00,91.0,54.3,29.97,NW,308,2.3,2.3,29,0.00,CLR,,0.00,WeatherDisplay:10.37,2013-04-28 00:23:00,
2013-04-27 17:28:00,91.3,53.6,29.97,WSW,240,1.2,0.0,28,0.00,CLR,,0.00,WeatherDisplay:10.37,2013-04-28 00:28:00,
2013-04-27 17:33:00,91.4,52.7,29.97,WSW,254,2.3,2.3,27,0.00,CLR,,0.00,WeatherDisplay:10.37,2013-04-28 00:33:00,
2013-04-27 17:38:00,91.1,53.5,29.97,SSE,162,1.2,1.2,28,0.00,CLR,,0.00,WeatherDisplay:10.37,2013-04-28 00:38:00,
2013-04-27 17:43:00,91.0,53.4,29.97,West,267,2.3,2.3,28,0.00,CLR,,0.00,WeatherDisplay:10.37,2013-04-28 00:43:00,
2013-04-27 17:48:00,90.8,53.2,29.97,NW,317,1.2,1.2,28,0.00,CLR,,0.00,WeatherDisplay:10.37,2013-04-28 00:48:00,
2013-04-27 17:53:00,90.9,53.3,29.97,WNW,288,2.0,2.0,28,0.00,CLR,,0.00,WeatherDisplay:10.37,2013-04-28 00:53:00,
2013-04-27 17:58:00,90.8,53.2,29.97,WNW,301,2.3,2.3,28,0.00,CLR,,0.00,WeatherDisplay:10.37,2013-04-28 00:58:00,
2013-04-27 18:03:00,90.7,53.1,29.96,NW,312,2.3,2.3,28,0.00,CLR,,0.00,WeatherDisplay:10.37,2013-04-28 01:03:00,
2013-04-27 18:08:00,90.2,53.6,29.96,WNW,294,2.3,0.0,29,0.00,CLR,,0.00,WeatherDisplay:10.37,2013-04-28 01:08:00,
2013-04-27 18:13:00,90.2,53.6,29.96,SW,235,2.0,2.0,29,0.00,CLR,,0.00,WeatherDisplay:10.37,2013-04-28 01:13:00,
2013-04-27 18:18:00,90.1,53.6,29.96,West,271,1.0,1.0,29,0.00,CLR,,0.00,WeatherDisplay:10.37,2013-04-28 01:18:00,
2013-04-27 18:23:00,89.9,53.4,29.96,West,271,1.2,1.2,29,0.00,CLR,,0.00,WeatherDisplay:10.37,2013-04-28 01:23:00,
2013-04-27 18:28:00,89.9,53.4,29.96,NNW,328,0.0,0.0,29,0.00,CLR,,0.00,WeatherDisplay:10.37,2013-04-28 01:28:00,
2013-04-27 18:33:00,90.0,53.5,29.96,West,260,1.2,1.2,29,0.00,CLR,,0.00,WeatherDisplay:10.37,2013-04-28 01:33:00,
2013-04-27 18:38:00,89.2,53.7,29.96,North,11,0.0,0.1,30,0.00,CLR,,0.00,WeatherDisplay:10.37,2013-04-28 01:38:00,
2013-04-27 18:43:00,88.8,53.4,29.96,NNW,347,1.2,1.2,30,0.00,CLR,,0.00,WeatherDisplay:10.37,2013-04-28 01:43:00,
2013-04-27 18:48:00,88.5,54.0,29.96,WNW,283,2.3,0.0,31,0.00,CLR,,0.00,WeatherDisplay:10.37,2013-04-28 01:48:00,
2013-04-27 18:53:00,88.1,54.5,29.95,NNW,333,0.0,0.0,32,0.00,CLR,,0.00,WeatherDisplay:10.37,2013-04-28 01:53:00,
2013-04-27 18:58:00,87.5,55.7,29.95,North,351,1.2,0.0,34,0.00,CLR,,0.00,WeatherDisplay:10.37,2013-04-28 01:58:00,
2013-04-27 19:03:00,87.2,55.4,29.95,West,267,1.2,1.2,34,0.00,CLR,,0.00,WeatherDisplay:10.37,2013-04-28 02:03:00,
2013-04-27 19:08:00,86.9,55.2,29.95,West,262,1.2,0.0,34,0.00,CLR,,0.00,WeatherDisplay:10.37,2013-04-28 02:08:00,
2013-04-27 19:13:00,86.3,54.6,29.95,West,277,0.0,0.0,34,0.00,CLR,,0.00,WeatherDisplay:10.37,2013-04-28 02:13:00,
2013-04-27 19:18:00,85.5,54.7,29.95,West,277,0.0,0.0,35,0.00,CLR,,0.00,WeatherDisplay:10.37,2013-04-28 02:18:00,
2013-04-27 19:23:00,84.8,55.6,29.95,West,277,0.0,0.0,37,0.00,CLR,,0.00,WeatherDisplay:10.37,2013-04-28 02:23:00,
2013-04-27 19:28:00,84.1,55.7,29.95,West,277,0.0,0.0,38,0.00,CLR,,0.00,WeatherDisplay:10.37,2013-04-28 02:28:00,
2013-04-27 19:33:00,83.4,55.8,29.95,West,277,0.0,0.0,39,0.00,CLR,,0.00,WeatherDisplay:10.37,2013-04-28 02:33:00,
2013-04-27 19:38:00,82.6,55.8,29.95,West,277,0.0,0.0,40,0.00,CLR,,0.00,WeatherDisplay:10.37,2013-04-28 02:38:00,
2013-04-27 19:43:00,81.7,57.0,29.95,West,277,0.0,0.0,43,0.00,CLR,,0.00,WeatherDisplay:10.37,2013-04-28 02:43:00,
2013-04-27 19:48:00,80.8,56.9,29.95,West,277,0.0,0.0,44,0.00,CLR,,0.00,WeatherDisplay:10.37,2013-04-28 02:48:00,
2013-04-27 19:53:00,80.0,56.1,29.95,West,277,0.0,0.0,44,0.00,CLR,,0.00,WeatherDisplay:10.37,2013-04-28 02:53:00,
2013-04-27 19:58:00,79.3,55.5,29.95,West,277,0.0,0.0,44,0.00,CLR,,0.00,WeatherDisplay:10.37,2013-04-28 02:58:00,
2013-04-27 20:03:00,78.9,55.8,29.95,West,277,0.0,0.0,45,0.00,CLR,,0.00,WeatherDisplay:10.37,2013-04-28 03:03:00,
2013-04-27 20:08:00,78.5,54.8,29.95,West,278,0.0,0.0,44,0.00,CLR,,0.00,WeatherDisplay:10.37,2013-04-28 03:08:00,
2013-04-27 20:13:00,78.4,54.7,29.95,West,277,0.0,0.0,44,0.00,CLR,,0.00,WeatherDisplay:10.37,2013-04-28 03:13:00,
2013-04-27 20:18:00,78.3,56.4,29.95,West,277,0.0,0.0,47,0.00,CLR,,0.00,WeatherDisplay:10.37,2013-04-28 03:18:00,
2013-04-27 20:23:00,77.9,55.5,29.96,West,276,0.0,0.0,46,0.00,CLR,,0.00,WeatherDisplay:10.37,2013-04-28 03:23:00,
2013-04-27 20:28:00,77.4,56.2,29.96,West,277,0.0,0.0,48,0.00,CLR,,0.00,WeatherDisplay:10.37,2013-04-28 03:28:00,
2013-04-27 20:33:00,76.8,56.2,29.96,West,276,0.0,0.0,49,0.00,CLR,,0.00,WeatherDisplay:10.37,2013-04-28 03:33:00,
2013-04-27 20:38:00,76.2,55.6,29.96,West,277,0.0,0.0,49,0.00,CLR,,0.00,WeatherDisplay:10.37,2013-04-28 03:38:00,
2013-04-27 20:43:00,75.7,54.6,29.96,West,277,0.0,0.0,48,0.00,CLR,,0.00,WeatherDisplay:10.37,2013-04-28 03:43:00,
2013-04-27 20:48:00,75.3,55.4,29.96,West,277,0.0,0.0,50,0.00,CLR,,0.00,WeatherDisplay:10.37,2013-04-28 03:48:00,
2013-04-27 20:53:00,75.0,55.6,29.96,West,276,0.0,0.0,51,0.00,CLR,,0.00,WeatherDisplay:10.37,2013-04-28 03:53:00,
2013-04-27 20:58:00,74.7,55.4,29.97,West,277,0.0,0.0,51,0.00,CLR,,0.00,WeatherDisplay:10.37,2013-04-28 03:58:00,
2013-04-27 21:01:00,74.6,55.8,29.97,West,277,0.0,0.0,52,0.00,CLR,,0.00,WeatherDisplay:10.37,2013-04-28 04:01:00,
2013-04-27 21:06:00,74.3,56.1,29.97,West,277,0.0,0.0,53,0.00,CLR,,0.00,WeatherDisplay:10.37,2013-04-28 04:06:00,
2013-04-27 21:11:00,74.0,55.8,29.97,West,277,0.0,0.0,53,0.00,CLR,,0.00,WeatherDisplay:10.37,2013-04-28 04:11:00,
2013-04-27 21:16:00,73.6,55.9,29.97,West,277,0.0,0.0,54,0.00,CLR,,0.00,WeatherDisplay:10.37,2013-04-28 04:16:00,
2013-04-27 21:21:00,73.3,55.6,29.97,West,277,0.0,0.0,54,0.00,CLR,,0.00,WeatherDisplay:10.37,2013-04-28 04:21:00,
2013-04-27 21:26:00,72.8,55.7,29.97,West,277,0.0,0.0,55,0.00,CLR,,0.00,WeatherDisplay:10.37,2013-04-28 04:26:00,
2013-04-27 21:31:00,72.4,55.8,29.97,West,276,0.0,0.0,56,0.00,CLR,,0.00,WeatherDisplay:10.37,2013-04-28 04:31:00,
2013-04-27 21:36:00,72.1,55.5,29.98,West,277,0.0,0.0,56,0.00,CLR,,0.00,WeatherDisplay:10.37,2013-04-28 04:36:00,
2013-04-27 21:41:00,71.8,56.2,29.98,West,277,0.0,0.0,58,0.00,CLR,,0.00,WeatherDisplay:10.37,2013-04-28 04:41:00,
2013-04-27 21:46:00,71.6,56.0,29.98,West,277,0.0,0.0,58,0.00,CLR,,0.00,WeatherDisplay:10.37,2013-04-28 04:46:00,
2013-04-27 21:51:00,71.3,56.2,29.98,West,277,0.0,0.0,59,0.00,CLR,,0.00,WeatherDisplay:10.37,2013-04-28 04:51:00,
2013-04-27 21:56:00,71.1,56.0,29.98,West,277,0.0,0.0,59,0.00,CLR,,0.00,WeatherDisplay:10.37,2013-04-28 04:56:00,
2013-04-27 22:01:00,70.7,56.1,29.98,West,277,0.0,0.0,60,0.00,CLR,,0.00,WeatherDisplay:10.37,2013-04-28 05:01:00,
2013-04-27 22:06:00,70.5,55.9,29.98,West,277,0.0,0.0,60,0.00,CLR,,0.00,WeatherDisplay:10.37,2013-04-28 05:06:00,
2013-04-27 22:11:00,70.3,55.3,29.98,West,277,0.0,0.0,59,0.00,CLR,,0.00,WeatherDisplay:10.37,2013-04-28 05:11:00,
2013-04-27 22:16:00,70.2,56.1,29.98,West,277,0.0,0.0,61,0.00,CLR,,0.00,WeatherDisplay:10.37,2013-04-28 05:16:00,
2013-04-27 22:21:00,70.0,56.4,29.98,West,277,0.0,0.0,62,0.00,CLR,,0.00,WeatherDisplay:10.37,2013-04-28 05:21:00,
2013-04-27 22:26:00,69.7,55.6,29.98,West,277,0.0,0.0,61,0.00,CLR,,0.00,WeatherDisplay:10.37,2013-04-28 05:26:00,
2013-04-27 22:31:00,69.6,56.0,29.98,West,277,0.0,0.0,62,0.00,CLR,,0.00,WeatherDisplay:10.37,2013-04-28 05:31:00,
2013-04-27 22:36:00,69.4,56.3,29.98,West,277,0.0,0.0,63,0.00,CLR,,0.00,WeatherDisplay:10.37,2013-04-28 05:36:00,
2013-04-27 22:41:00,69.0,55.9,29.98,West,277,0.0,0.0,63,0.00,CLR,,0.00,WeatherDisplay:10.37,2013-04-28 05:41:00,
2013-04-27 22:46:00,68.8,55.7,29.98,West,277,0.0,0.0,63,0.00,CLR,,0.00,WeatherDisplay:10.37,2013-04-28 05:46:00,
2013-04-27 22:51:00,68.5,55.8,29.98,West,277,0.0,0.0,64,0.00,CLR,,0.00,WeatherDisplay:10.37,2013-04-28 05:51:00,
2013-04-27 22:56:00,68.3,55.6,29.98,West,277,0.0,0.0,64,0.00,CLR,,0.00,WeatherDisplay:10.37,2013-04-28 05:56:00,
2013-04-27 23:01:00,68.0,55.8,29.98,West,278,0.0,0.0,65,0.00,CLR,,0.00,WeatherDisplay:10.37,2013-04-28 06:01:00,
2013-04-27 23:06:00,67.8,56.0,29.98,West,277,0.0,0.0,66,0.00,CLR,,0.00,WeatherDisplay:10.37,2013-04-28 06:06:00,
2013-04-27 23:11:00,67.9,55.7,29.98,West,277,0.0,0.0,65,0.00,CLR,,0.00,WeatherDisplay:10.37,2013-04-28 06:11:00,
2013-04-27 23:16:00,67.9,54.8,29.98,West,277,0.0,0.0,63,0.00,CLR,,0.00,WeatherDisplay:10.37,2013-04-28 06:16:00,
2013-04-27 23:21:00,67.9,55.3,29.98,West,277,0.0,0.0,64,0.00,CLR,,0.00,WeatherDisplay:10.37,2013-04-28 06:21:00,
2013-04-27 23:26:00,67.8,54.7,29.98,West,276,0.0,0.0,63,0.00,CLR,,0.00,WeatherDisplay:10.37,2013-04-28 06:26:00,
2013-04-27 23:31:00,67.7,55.1,29.98,West,277,0.0,0.0,64,0.00,CLR,,0.00,WeatherDisplay:10.37,2013-04-28 06:31:00,
2013-04-27 23:36:00,67.6,55.4,29.98,West,277,0.0,0.0,65,0.00,CLR,,0.00,WeatherDisplay:10.37,2013-04-28 06:36:00,
2013-04-27 23:41:00,67.4,55.2,29.98,West,277,0.0,0.0,65,0.00,CLR,,0.00,WeatherDisplay:10.37,2013-04-28 06:41:00,
2013-04-27 23:46:00,67.2,55.0,29.98,West,276,0.0,0.0,65,0.00,CLR,,0.00,WeatherDisplay:10.37,2013-04-28 06:46:00,
2013-04-27 23:51:00,66.9,55.2,29.98,West,276,0.0,0.0,66,0.00,CLR,,0.00,WeatherDisplay:10.37,2013-04-28 06:51:00,
2013-04-27 23:56:00,66.7,54.6,29.98,West,277,0.0,0.0,65,0.00,CLR,,0.00,WeatherDisplay:10.37,2013-04-28 06:56:00,